TimeCST,TemperatureF,Dew PointF,Humidity,Sea Level PressureIn,VisibilityMPH,Wind Direction,Wind SpeedMPH,Gust SpeedMPH,PrecipitationIn,Events,Conditions,WindDirDegrees,DateUTC
12:15 AM,14.9,12.2,89,30.42,10.0,Calm,Calm,-,N/A,,Overcast,0,2013-11-29 06:15:00
12:35 AM,15.3,12.2,88,30.42,10.0,Calm,Calm,-,N/A,,Overcast,0,2013-11-29 06:35:00
12:55 AM,14.9,12.0,88,30.42,10.0,Calm,Calm,-,N/A,,Overcast,0,2013-11-29 06:55:00
1:15 AM,14.7,12.0,89,30.43,10.0,Calm,Calm,-,N/A,,Overcast,0,2013-11-29 07:15:00
1:35 AM,13.6,11.1,90,30.43,10.0,Calm,Calm,-,N/A,,Mostly Cloudy,0,2013-11-29 07:35:00
1:55 AM,12.4,10.2,91,30.43,10.0,Calm,Calm,-,N/A,,Scattered Clouds,0,2013-11-29 07:55:00
2:15 AM,8.8,7.3,94,30.44,10.0,Calm,Calm,-,N/A,,Clear,0,2013-11-29 08:15:00
2:35 AM,5.7,3.7,92,30.45,10.0,Calm,Calm,-,N/A,,Clear,0,2013-11-29 08:35:00
2:55 AM,5.4,2.8,89,30.45,1.2,Calm,Calm,-,N/A,Snow,Light Snow,0,2013-11-29 08:55:00
3:15 AM,5.2,2.7,89,30.44,10.0,Calm,Calm,-,N/A,,Clear,0,2013-11-29 09:15:00
3:35 AM,4.1,1.6,89,30.44,10.0,Calm,Calm,-,N/A,,Clear,0,2013-11-29 09:35:00
3:55 AM,3.0,0.3,88,30.44,10.0,Calm,Calm,-,N/A,,Clear,0,2013-11-29 09:55:00
4:15 AM,2.5,-0.4,88,30.44,10.0,Calm,Calm,-,N/A,,Clear,0,2013-11-29 10:15:00
4:35 AM,2.3,-0.4,88,30.45,10.0,Calm,Calm,-,N/A,,Clear,0,2013-11-29 10:35:00
4:55 AM,1.2,-1.8,87,30.45,10.0,Calm,Calm,-,N/A,,Clear,0,2013-11-29 10:55:00
5:15 AM,1.2,-2.0,86,30.46,10.0,Calm,Calm,-,N/A,,Clear,0,2013-11-29 11:15:00
5:35 AM,0.9,-2.4,86,30.47,10.0,Calm,Calm,-,N/A,,Clear,0,2013-11-29 11:35:00
5:55 AM,0.1,-3.3,85,30.47,10.0,Calm,Calm,-,N/A,,Clear,0,2013-11-29 11:55:00
6:15 AM,-0.9,-4.2,86,30.48,10.0,Calm,Calm,-,N/A,,Clear,0,2013-11-29 12:15:00
6:35 AM,-0.8,-4.2,85,30.48,10.0,Calm,Calm,-,N/A,,Clear,0,2013-11-29 12:35:00
6:55 AM,-0.8,-4.2,85,30.48,10.0,Calm,Calm,-,N/A,,Clear,0,2013-11-29 12:55:00
7:15 AM,-1.1,-4.5,85,30.48,10.0,Calm,Calm,-,N/A,,Clear,0,2013-11-29 13:15:00
7:35 AM,-0.8,-4.2,85,30.48,10.0,Calm,Calm,-,N/A,,Scattered Clouds,0,2013-11-29 13:35:00
7:55 AM,0.3,-3.3,85,30.48,10.0,Calm,Calm,-,N/A,,Mostly Cloudy,0,2013-11-29 13:55:00
8:15 AM,2.5,-0.9,86,30.49,10.0,Calm,Calm,-,N/A,,Mostly Cloudy,0,2013-11-29 14:15:00
8:35 AM,5.2,2.3,88,30.49,10.0,Calm,Calm,-,N/A,,Mostly Cloudy,0,2013-11-29 14:35:00
8:55 AM,6.4,3.6,88,30.50,10.0,Calm,Calm,-,N/A,,Mostly Cloudy,0,2013-11-29 14:55:00
9:15 AM,8.2,5.5,89,30.49,10.0,Calm,Calm,-,N/A,,Mostly Cloudy,0,2013-11-29 15:15:00
9:35 AM,9.5,6.8,89,30.49,10.0,Calm,Calm,-,N/A,,Scattered Clouds,0,2013-11-29 15:35:00
9:55 AM,10.8,8.1,89,30.49,10.0,Calm,Calm,-,N/A,,Clear,0,2013-11-29 15:55:00
10:15 AM,12.4,10.2,91,30.50,10.0,Calm,Calm,-,N/A,,Clear,0,2013-11-29 16:15:00
10:35 AM,14.0,11.7,90,30.50,10.0,Calm,Calm,-,N/A,,Clear,0,2013-11-29 16:35:00
10:55 AM,15.6,13.5,91,30.48,10.0,South,4.6,-,N/A,,Clear,170,2013-11-29 16:55:00
11:15 AM,16.5,14.4,91,30.48,10.0,SSE,8.1,-,N/A,,Clear,160,2013-11-29 17:15:00
11:35 AM,17.4,14.9,90,30.47,10.0,South,5.8,-,N/A,,Scattered Clouds,180,2013-11-29 17:35:00
11:55 AM,18.9,14.7,84,30.45,10.0,SSE,5.8,-,N/A,,Scattered Clouds,160,2013-11-29 17:55:00
12:15 PM,19.8,12.6,74,30.45,10.0,South,5.8,-,N/A,,Clear,170,2013-11-29 18:15:00
12:35 PM,20.1,12.9,74,30.44,10.0,SSW,5.8,-,N/A,,Clear,200,2013-11-29 18:35:00
12:55 PM,20.3,13.1,74,30.42,10.0,SSE,5.8,-,N/A,,Mostly Cloudy,160,2013-11-29 18:55:00
1:15 PM,20.7,13.3,73,30.41,10.0,SSE,8.1,-,N/A,,Overcast,160,2013-11-29 19:15:00
1:35 PM,21.2,13.6,73,30.40,10.0,South,5.8,-,N/A,,Overcast,180,2013-11-29 19:35:00
1:55 PM,21.6,13.1,70,30.39,10.0,SSE,6.9,-,N/A,,Overcast,150,2013-11-29 19:55:00
2:15 PM,21.6,13.5,71,30.38,10.0,SSE,8.1,-,N/A,,Overcast,160,2013-11-29 20:15:00
2:35 PM,22.1,13.8,70,30.37,10.0,South,9.2,-,N/A,,Overcast,170,2013-11-29 20:35:00
2:55 PM,22.1,13.8,70,30.36,10.0,South,8.1,-,N/A,,Overcast,170,2013-11-29 20:55:00
3:15 PM,22.1,14.0,71,30.35,10.0,SE,10.4,-,N/A,,Overcast,140,2013-11-29 21:15:00
3:35 PM,22.5,14.0,70,30.34,10.0,SSE,8.1,-,N/A,,Mostly Cloudy,160,2013-11-29 21:35:00
3:55 PM,22.5,13.8,69,30.35,10.0,SSE,8.1,-,N/A,,Scattered Clouds,160,2013-11-29 21:55:00
4:15 PM,21.7,13.6,71,30.34,10.0,South,8.1,-,N/A,,Clear,170,2013-11-29 22:15:00
4:35 PM,21.6,14.0,73,30.34,10.0,South,8.1,-,N/A,,Clear,170,2013-11-29 22:35:00
4:55 PM,21.2,13.8,73,30.33,10.0,SSE,9.2,-,N/A,,Clear,150,2013-11-29 22:55:00
5:15 PM,21.2,13.8,73,30.33,10.0,SSE,8.1,-,N/A,,Clear,150,2013-11-29 23:15:00
5:35 PM,20.3,13.6,75,30.31,10.0,SSE,9.2,-,N/A,,Clear,150,2013-11-29 23:35:00
5:55 PM,20.3,13.8,76,30.30,10.0,SSE,8.1,-,N/A,,Clear,150,2013-11-29 23:55:00
6:15 PM,20.5,14.0,76,30.29,10.0,SSE,8.1,-,N/A,,Clear,150,2013-11-30 00:15:00
6:35 PM,20.5,14.0,76,30.28,10.0,SSE,9.2,-,N/A,,Scattered Clouds,150,2013-11-30 00:35:00
6:55 PM,20.8,14.2,75,30.27,10.0,SSE,6.9,-,N/A,,Mostly Cloudy,150,2013-11-30 00:55:00
7:15 PM,21.0,14.5,76,30.26,10.0,SSE,11.5,-,N/A,,Overcast,160,2013-11-30 01:15:00
7:35 PM,21.6,14.9,76,30.26,10.0,SSE,10.4,17.3,N/A,,Overcast,160,2013-11-30 01:35:00
7:55 PM,21.9,15.3,76,30.25,10.0,South,12.7,19.6,N/A,,Overcast,170,2013-11-30 01:55:00
8:15 PM,22.1,15.4,76,30.24,10.0,South,11.5,-,N/A,,Overcast,170,2013-11-30 02:15:00
8:35 PM,22.5,15.4,74,30.22,10.0,South,16.1,23.0,N/A,,Overcast,170,2013-11-30 02:35:00
8:55 PM,22.8,15.4,73,30.22,10.0,South,15.0,18.4,N/A,,Overcast,170,2013-11-30 02:55:00
9:15 PM,23.0,15.6,73,30.21,10.0,South,13.8,21.9,N/A,,Overcast,170,2013-11-30 03:15:00
9:35 PM,23.0,15.6,73,30.21,10.0,South,10.4,16.1,N/A,,Overcast,170,2013-11-30 03:35:00
9:55 PM,23.4,15.8,73,30.21,10.0,South,12.7,18.4,N/A,,Overcast,180,2013-11-30 03:55:00
10:15 PM,23.7,16.0,72,30.21,10.0,South,11.5,18.4,N/A,,Overcast,170,2013-11-30 04:15:00
10:35 PM,23.7,16.3,73,30.21,10.0,South,8.1,-,N/A,,Overcast,190,2013-11-30 04:35:00
10:55 PM,23.9,16.5,73,30.21,10.0,South,9.2,-,N/A,,Overcast,180,2013-11-30 04:55:00
11:15 PM,23.9,16.7,74,30.21,10.0,South,10.4,17.3,N/A,,Overcast,190,2013-11-30 05:15:00
11:35 PM,23.9,16.7,74,30.20,10.0,South,10.4,-,N/A,,Overcast,180,2013-11-30 05:35:00
11:55 PM,23.9,16.7,74,30.19,10.0,South,10.4,-,N/A,,Overcast,180,2013-11-30 05:55:00